Location: ????????
(55.4000°N, 39.1167°E)
Time: 18:55:21
(UTC+00:00)

Daily predictions for brighter satellites

Satellite Brightness Start Highest point End
(mag) Time Altitude Azimuth Time Altitude Azimuth Time Altitude Azimuth
Cosmos-2242 3.2 18:17:20 10° S 18:21:29 54° E 18:25:40 10° NNE
Cosmos 2082 Rocket 3.9 18:19:56 10° SE 18:22:42 14° E 18:25:28 10° ENE
SeaSat 1 2.9 18:18:14 10° SE 18:23:02 57° NE 18:27:51 10° NNW
Cosmos 1536 4.2 18:20:55 10° N 18:24:08 25° ENE 18:27:18 10° ESE
Iridium 4 Rocket 4.0 18:19:40 10° N 18:24:38 66° W 18:30:00 10° S
Okean O Rocket 3.0 18:23:30 10° SSW 18:27:32 36° W 18:31:33 10° NNW
SPOT 3 Rocket 3.6 18:23:24 10° SSE 18:28:30 78° ENE 18:33:40 10° NNW
Cosmos 2221 3.9 18:25:21 10° SE 18:28:36 22° E 18:31:52 10° NE
Cosmos 1933 3.5 18:25:58 10° SSW 18:29:49 73° WNW 18:33:42 10° N
NOSS 2-3 (C) 4.0 18:27:09 10° WSW 18:30:44 58° NNW 18:35:01 10° NE
ERS-1 Rocket 3.9 18:27:40 10° S 18:32:30 47° W 18:37:22 10° NNW
Okean-O 3.7 18:28:43 10° S 18:32:54 42° W 18:37:06 10° NNW
NOSS 3-1 (C) 3.6 18:33:41 10° S 18:38:06 35° ESE 18:43:23 10° ENE
Cosmos 1743 4.2 18:39:41 10° NNW 18:42:44 30° W 18:45:46 10° SSW
Spot 2 Rocket 4.0 18:39:03 10° S 18:44:00 59° WSW 18:49:01 10° NNW
Cosmos 2333 Rocket 3.9 18:39:15 10° NNW 18:44:10 28° NNE 18:49:02 10° E
ISS -2.8 18:44:30 10° W 18:47:33 32° SSW 18:50:23 11° SE
Cosmos 2084 Rocket 4.4 18:44:13 10° S 18:47:48 26° SE 18:51:21 10° ENE
Lacrosse 4 Rocket 3.5 18:44:23 10° W 18:47:58 31° NW 18:51:37 10° NNE
ARIANE 6 FM1 Upper Stage 2.6 18:45:23 10° SW 18:49:20 58° SE 18:53:20 10° ENE
IKONOS-2 4.5 18:45:12 10° NNE 18:49:20 89° NW 18:53:27 10° SSW
Cosmos 1821 Rocket 4.2 18:43:49 10° N 18:49:54 60° ENE 18:55:50 10° SSE
Cosmos 1833 Rocket 2.7 18:44:33 10° SSW 18:50:08 66° ESE 18:55:45 10° NE
Cosmos 2218 Rocket 4.1 18:48:08 10° NNW 18:54:34 88° E 19:00:53 10° S
Cosmos 1356 Rocket 3.5 18:53:49 10° S 18:57:52 58° E 19:01:54 10° NNE
Cosmos 1733 3.9 18:57:21 10° NNW 19:00:15 37° W 19:03:08 10° SSW
Cosmos 2219 Rocket 4.3 18:56:00 10° NNW 19:00:25 23° NNE 19:04:47 10° ENE
Cosmos 158 Rocket 4.1 18:55:41 10° SSW 19:01:02 86° WNW 19:06:28 10° NNE
NOSS 3-1 (A) 4.0 19:03:41 10° S 19:07:49 28° ESE 19:12:39 10° ENE
USA 234 3.3 19:01:33 10° ENE 19:08:01 58° SSE 19:14:27 10° SW
Cosmos 2058 Rocket 4.3 19:04:15 10° SW 19:08:32 43° WNW 19:12:48 10° N
Cosmos 1980 Rocket 2.3 19:05:05 10° NW 19:10:41 72° WSW 19:15:43 13° SSE
Cosmos 1805 3.0 19:10:47 10° N 19:14:16 70° ENE 19:17:00 15° SSE
Cosmos 1812 Rocket 3.5 19:12:21 10° S 19:16:39 79° E 19:20:59 10° NNE
Terra 3.8 19:14:21 10° SW 19:18:05 23° W 19:21:51 10° NW
SWARM A 4.4 19:15:01 10° S 19:18:23 77° W 19:21:48 10° N
Cosmos 2181 Rocket 4.1 19:14:35 10° S 19:20:51 77° E 19:27:15 10° NNE
SL-16 R/B 2.9 19:16:15 10° NNW 19:21:47 49° NE 19:27:17 10° ESE
Cosmos 2208 Rocket 4.1 19:16:38 10° SSW 19:21:58 68° ESE 19:27:16 10° NNE
Meteor 1-11 Rocket 3.9 19:18:18 10° N 19:23:49 65° ENE 19:28:28 15° SSE
ATLAS CENTAUR R/B 1.3 19:20:11 10° SW 19:23:56 77° NW 19:27:49 10° NE
Cosmos 1315 Rocket 2.7 19:20:19 10° S 19:24:10 74° ESE 19:28:04 10° NNE
SL-24 R/B 4.1 19:21:56 10° NNE 19:26:15 77° ESE 19:30:41 10° SSW
Cosmos 2344 4.1 19:19:27 10° WSW 19:26:40 62° NNW 19:34:25 10° ENE
DELTA 2 DEB (DPAF) 3.9 19:26:13 10° NNE 19:30:08 58° ESE 19:33:24 14° S
Cosmos 2322 Rocket 3.3 19:25:21 10° NNW 19:30:43 40° NE 19:36:01 10° ESE
Cosmos 2237 4.4 19:25:23 10° NNW 19:31:07 71° NE 19:36:07 14° SE
BlueWalker 3 3.8 19:32:32 10° WSW 19:34:48 16° SW 19:36:16 13° S
Meteor 1-14 Rocket 4.5 19:30:38 10° NNW 19:36:12 67° W 19:41:17 13° S
Genesis I 2.8 19:34:15 10° NW 19:36:59 56° NE 19:39:01 16° ESE
Cosmos 1975 3.4 19:34:57 10° N 19:38:28 39° ENE 19:40:57 17° SE
Ariane Rocket 4.3 19:37:38 10° SSW 19:42:12 33° W 19:46:48 10° NNW
Cosmos 1697 Rocket 4.3 19:37:49 10° NW 19:42:22 25° WSW 19:46:54 10° SSW
Nadezhda 3 Rocket 4.2 19:37:18 14° S 19:42:35 60° E 19:48:44 10° NNE
CZ-4C R/B 3.6 19:39:38 10° NNE 19:43:11 44° E 19:45:23 19° SSE
CENTAUR R/B 3.5 19:37:05 10° NW 19:44:37 66° NNE 19:53:37 10° ESE
Cosmos 1934 Rocket 4.2 19:39:46 10° N 19:45:58 64° ENE 19:51:02 16° SSE
ATLAS 3B R/B 3.9 19:42:57 15° SSE 19:47:41 28° ESE 19:54:02 10° ENE
Cosmos 2278 4.0 19:42:23 10° NNW 19:48:02 67° NE 19:52:56 14° SE
Cosmos 1570 Rocket 4.4 19:43:23 10° SW 19:48:37 66° WNW 19:53:54 10° NNE
ARIANE 5 R/B 2.8 19:46:27 17° SSE 19:49:38 62° ENE 19:53:58 10° N
Cosmos 1238 Rocket 3.0 19:46:09 10° SSW 19:49:44 55° WNW 19:52:54 10° N
Cosmos 2360 Rocket 3.1 19:45:07 10° NNW 19:50:30 44° NE 19:55:53 10° ESE
Cosmos 1842 Rocket 4.1 19:48:46 18° SSE 19:51:30 41° E 19:55:34 10° NNE
Meteor 2-6 Rocket 4.5 19:48:54 10° SSW 19:54:45 74° WNW 20:00:28 10° NNE
Cosmos 2369 4.1 19:49:49 10° NW 19:55:21 55° WSW 19:59:34 17° S
Cosmos 1766 3.3 19:52:27 10° N 19:55:51 54° ENE 19:57:53 22° SE
Cosmos 1470 3.8 19:54:03 10° N 19:57:15 30° ENE 19:59:31 16° ESE
Cosmos 1908 3.7 19:55:42 10° N 19:58:48 37° ENE 20:00:37 20° SE
Cosmos 1536 3.7 19:56:13 10° NNW 19:59:49 40° W 20:02:42 14° SSW
SeaSat 1 3.5 19:57:02 14° S 20:00:39 34° WSW 20:05:08 10° NW
CZ-2C R/B 4.0 19:58:39 10° NNE 20:02:54 47° E 20:05:39 20° SSE
Cosmos 2221 3.2 20:01:22 10° SSW 20:05:26 50° WNW 20:09:32 10° N
Cosmos 2082 Rocket 2.2 20:00:19 11° SSW 20:05:41 65° ESE 20:11:17 10° NE
Cosmos 405 Rocket 2.4 20:02:56 10° NNW 20:06:24 75° WSW 20:08:21 23° S
Okean 1 4.3 20:08:28 10° SW 20:11:57 39° WNW 20:15:26 10° N
Cosmos 1674 2.6 20:14:42 21° SW 20:15:50 37° WNW 20:17:58 10° N
KORONAS-FOTON 4.5 20:14:56 23° SE 20:16:30 34° E 20:19:42 10° NNE
COBE Rocket 4.1 20:11:56 10° NNE 20:17:03 79° WNW 20:21:35 14° SSW
Meteor 1-10 Rocket 4.4 20:11:55 13° SSW 20:17:11 86° WNW 20:23:03 10° NNE
Cosmos 773 Rocket 4.4 20:13:08 10° SW 20:18:14 64° WNW 20:23:21 10° NNE
Okean 3 Rocket 3.6 20:14:35 10° NNW 20:19:00 80° W 20:21:53 21° S
COSMOS 2406 3.4 20:17:11 16° S 20:21:37 57° ESE 20:27:13 10° NE
Landsat 5 3.8 20:17:42 10° NNE 20:21:47 52° E 20:24:14 23° S
NOSS 3-2 (A) 4.4 20:16:20 10° NW 20:22:56 62° NNE 20:31:04 10° ESE
ISS -1.5 20:22:09 10° WSW 20:23:18 12° SW 20:23:18 12° SW
USA 59 Rocket -0.1 20:24:32 29° SSE 20:25:16 33° SE 20:28:00 10° ENE
BREEZE-M R/B 4.2 20:16:31 10° W 20:25:17 29° SW 20:27:31 20° S
Cosmos 220 Rocket 4.4 20:21:55 10° SW 20:25:56 57° WNW 20:29:57 10° NNE
Cosmos 2084 Rocket 3.6 20:22:05 10° WSW 20:26:21 75° NW 20:30:35 10° NE
NOSS 3-1 (C) 3.6 20:23:17 10° WSW 20:28:24 69° NNW 20:34:50 10° NE
ARIANE 6 FM1 Upper Stage 3.9 20:24:44 10° W 20:28:37 44° NNW 20:32:34 10° NE
Cosmos 2333 Rocket 2.3 20:23:33 10° NNW 20:29:20 80° NE 20:33:55 16° SE
Cosmos 1842 3.7 20:29:20 25° SE 20:30:49 38° E 20:34:05 10° NNE
Cosmos 1833 Rocket 4.3 20:29:13 10° WSW 20:34:26 37° NW 20:39:40 10° NNE
NOSS 2-1 (E) 3.3 20:35:16 29° S 20:36:10 36° SE 20:38:59 10° ENE
MetOp-A 4.5 20:32:58 19° S 20:36:30 53° W 20:41:35 10° NNW
Meteor 2-13 Rocket 4.5 20:35:04 17° S 20:39:55 88° W 20:46:06 10° NNE
Cosmos 1455 4.1 20:40:39 10° NNE 20:42:08 13° ENE 20:43:36 10° E
Cosmos 1300 3.3 20:40:38 10° N 20:43:36 36° ENE 20:45:11 21° SE
ALOS 2 2.6 20:42:21 23° S 20:45:01 78° WSW 20:49:27 10° NNW
Cosmos 1151 Rocket 3.6 20:42:48 23° SSE 20:45:03 44° E 20:49:06 10° NNE
Cosmos 2219 Rocket 2.7 20:39:57 10° NNW 20:45:32 58° NE 20:50:59 10° SE
Cosmos 2333 4.4 20:41:22 10° NNW 20:47:05 73° NE 20:51:55 14° SE
USA 234 3.3 20:44:44 10° ENE 20:51:19 85° N 20:57:53 10° W
NOSS 2-1 (D) 2.7 20:50:18 27° SSW 20:51:48 56° SE 20:54:43 10° ENE
Meteor 2-4 Rocket 3.8 20:48:50 21° S 20:52:48 75° E 20:58:39 10° NNE
Meteor 1-27 Rocket 3.9 20:48:32 16° SSW 20:53:03 72° WNW 20:58:36 10° NNE
Cosmos 1980 Rocket 4.2 20:50:27 10° WNW 20:53:43 16° W 20:56:59 10° SW
NOSS 3-1 (A) 3.3 20:52:47 10° SW 20:57:53 80° NW 21:04:17 10° NE
Sich 1 3.4 20:55:21 10° NNW 20:59:30 53° W 21:01:52 23° SSW
CZ-2C R/B 4.2 20:56:08 10° ESE 21:00:32 29° ENE 21:04:56 10° N
ATLAS CENTAUR R/B 3.5 20:57:19 10° WNW 21:00:36 26° NNW 21:03:56 10° NE
Cosmos 1371 Rocket 4.3 20:55:30 10° NNW 21:00:52 68° ENE 21:05:13 16° SE
BREEZE-M DEB (TANK) 3.8 20:53:53 10° W 21:03:26 34° SW 21:05:28 23° S
Cosmos 2100 Rocket 4.5 20:57:30 10° N 21:03:46 57° ENE 21:08:46 16° SSE
SL-16 R/B 2.8 21:00:31 10° NW 21:05:53 44° WSW 21:09:15 21° S
Cosmos 2056 Rocket 3.6 21:01:13 10° NNW 21:06:36 75° ENE 21:10:41 17° SE
PSLV R/B 3.6 21:02:57 10° NNE 21:07:07 63° ESE 21:09:23 26° S
Genesis I 4.3 21:08:03 10° W 21:09:43 17° WSW 21:09:43 17° WSW
Cosmos 1624 Rocket 4.1 21:05:24 10° NNW 21:10:38 78° ENE 21:14:39 17° SSE
NOSS 2-1 (C) 2.5 21:09:43 21° SW 21:11:40 81° SE 21:14:40 10° NE
Cosmos 1975 4.4 21:10:41 10° NW 21:13:37 23° W 21:15:35 15° SW
Cosmos 1500 Rocket 4.1 21:09:55 10° NNW 21:14:07 47° W 21:16:34 22° SSW
Cosmos 1538 Rocket 3.9 21:10:27 19° SSW 21:14:14 89° ESE 21:19:25 10° NNE
Cosmos 2322 Rocket 2.4 21:09:27 10° NW 21:15:02 58° WSW 21:18:38 22° S
NOSS 3-2 (C) 4.4 21:09:44 10° NW 21:16:23 63° NNE 21:24:32 10° ESE
Exosat Rocket 4.0 21:11:34 10° NW 21:16:28 46° WSW 21:19:21 22° S
Cosmos 1459 Rocket 4.3 21:11:41 10° N 21:17:45 63° ENE 21:22:37 17° SSE
H-2A R/B 3.5 21:15:01 14° SE 21:18:04 37° ENE 21:21:40 10° N
Cosmos 1707 2.7 21:18:01 25° SW 21:19:42 57° WNW 21:23:02 10° N
COSMOS 2428 3.6 21:14:48 10° NNW 21:20:22 49° NE 21:25:56 10° ESE
Cosmos 1633 Rocket 3.3 21:16:42 10° N 21:21:02 62° ENE 21:23:51 21° SSE
Geosat FO 4.2 21:21:07 34° S 21:22:14 62° WSW 21:25:15 10° NW
Cosmos 44 Rocket 4.1 21:18:52 10° NW 21:23:33 52° NNE 21:28:18 10° ESE
Meteor 2-10 Rocket 3.9 21:19:58 10° NNW 21:25:43 76° ENE 21:30:03 19° SSE
ARIANE 5 R/B 4.4 21:23:51 13° SW 21:26:22 21° W 21:29:42 10° NW
Cosmos 1066 Rocket 4.2 21:23:03 21° S 21:26:54 87° ESE 21:32:43 10° NNE
Cosmos 1470 3.9 21:28:44 10° NNW 21:31:50 28° W 21:33:25 20° SW
Cosmos 2173 Rocket 4.1 21:26:01 10° N 21:32:26 80° ENE 21:37:12 19° SSE
Iridium 51 4.4 21:28:57 10° N 21:32:32 58° E 21:34:33 24° SSE
Cosmos 2360 Rocket 2.5 21:29:13 10° NW 21:34:38 50° WSW 21:38:03 22° S
CENTAUR R/B 3.3 21:27:44 10° NW 21:35:37 63° SW 21:44:23 11° SSE
Meteor 1-18 Rocket 4.4 21:32:07 20° SSW 21:36:16 79° WNW 21:42:12 10° NNE
GP-B 3.2 21:32:21 10° N 21:36:45 69° W 21:39:19 24° SSW
ATLAS 3B R/B 3.0 21:30:06 10° SW 21:37:32 81° SE 21:45:28 10° NE
USA 229 DEB 3.6 21:33:24 18° SSW 21:38:04 63° SE 21:44:53 10° NE
USA 229 3.6 21:33:31 18° SSW 21:38:10 63° SE 21:44:58 10° NE
ASTEX 1 3.4 21:38:35 10° N 21:43:33 78° W 21:46:45 22° SSW
GEOS 3 Rocket 3.5 21:41:19 10° SE 21:46:25 81° SW 21:51:37 10° NW
Cosmos 1758 3.5 21:43:11 10° N 21:47:01 64° ENE 21:49:25 21° SSE
CZ-2C R/B 4.4 21:42:22 10° NNE 21:47:38 35° E 21:51:58 14° SSE
Cosmos 1328 Rocket 3.6 21:46:16 24° S 21:48:45 67° E 21:53:04 10° NNE
Cosmos 2082 Rocket 3.6 21:44:57 10° WSW 21:50:09 37° NW 21:55:23 10° NNE
Cosmos 2123 Rocket 4.4 21:46:03 18° SSE 21:50:43 56° E 21:56:54 10° NNE
In-Cosmos 22 4.4 21:49:28 21° S 21:53:22 71° E 21:59:09 10° NNE
COSMOS 2455 4.5 21:49:45 10° NW 21:55:20 37° NNE 22:00:55 10° E
Cosmos 2112 Rocket 4.1 22:00:57 21° SSW 22:04:26 71° ESE 22:09:39 10° NNE
Cosmos 2237 Rocket 3.2 22:00:23 10° NNW 22:05:50 47° NE 22:11:17 10° ESE
COSMOS 2406 4.4 22:00:47 10° WSW 22:06:09 41° NW 22:11:35 10° NNE
NOSS 2-2 (D) 3.8 22:09:01 10° NW 22:12:30 61° NE 22:17:06 10° ESE
Cosmos 2061 Rocket 4.3 22:06:23 10° N 22:12:51 71° ENE 22:18:49 12° SSE
Cosmos 2333 Rocket 3.5 22:08:30 10° NW 22:13:04 25° WSW 22:15:54 17° SW
NOSS 3-2 (A) 4.1 22:07:04 10° NW 22:14:03 62° SW 22:22:30 10° SSE
USA 59 Rocket 0.7 22:11:23 10° W 22:14:12 34° NNW 22:17:00 10° NE
Cosmos 1455 1.9 22:11:54 10° NNW 22:14:37 44° W 22:15:31 31° SW
Cosmos 1300 4.1 22:14:27 10° NW 22:16:43 18° W 22:17:49 16° WSW
Cosmos 2322 3.7 22:14:50 10° NW 22:20:31 73° WSW 22:26:01 11° SSE
SL-14 R/B 3.2 22:18:46 24° S 22:21:00 90° W 22:24:56 10° NNE
Cosmos 1953 3.3 22:18:33 10° N 22:22:02 38° ENE 22:25:30 10° SE
NOSS 2-2 (C) 3.3 22:19:51 10° NW 22:23:31 84° SW 22:28:29 10° SE
Cosmos 1110 Rocket 4.0 22:18:21 10° NNW 22:23:41 78° WSW 22:28:27 13° SSE
NOSS 2-1 (E) 4.2 22:22:27 10° W 22:25:20 34° NNW 22:28:10 10° NE
Cosmos 1452 Rocket 3.5 22:22:38 10° NNW 22:27:54 84° WSW 22:33:06 10° SSE
Cosmos 1437 Rocket 3.9 22:25:52 15° SSE 22:28:15 30° E 22:31:24 10° NNE
Meteor 1-13 Rocket 4.4 22:24:25 18° S 22:28:52 80° ESE 22:34:51 10° NNE
Cosmos 2219 Rocket 2.9 22:24:12 10° NW 22:29:17 36° WSW 22:32:39 19° SSW
Cosmos 494 Rocket 4.0 22:27:54 20° SSW 22:31:31 78° ESE 22:36:42 10° NNE
USA 234 3.4 22:27:46 10° E 22:34:19 81° N 22:40:53 10° WNW
IRIDIUM 114 4.4 22:31:47 17° S 22:35:51 80° E 22:41:07 10° N
ATLAS CENTAUR R/B 4.1 22:34:46 10° NW 22:37:47 21° N 22:40:48 10° NE
CZ-2C R/B 2.7 22:36:30 17° S 22:40:30 62° WSW 22:45:38 10° NNW
SL-16 R/B 4.0 22:36:08 10° NNW 22:41:18 34° NE 22:46:26 10° ESE
Cosmos 2016 Rocket 4.2 22:37:35 10° NNW 22:43:37 58° W 22:48:31 16° SSW
Cosmos 1048 Rocket 4.2 22:39:55 18° S 22:43:39 63° ESE 22:48:43 10° NNE
Cosmos 1680 Rocket 3.9 22:39:25 15° SW 22:43:45 57° NW 22:48:55 10° NNE
IRIDIUM 103 4.3 22:40:55 17° S 22:45:01 88° W 22:50:17 10° N
Cosmos 1833 4.5 22:42:21 14° SW 22:47:19 70° NW 22:53:07 10° NNE
Cosmos 2297 Rocket 3.6 22:44:13 10° SSE 22:48:58 28° ESE 22:53:44 10° NE
H-2A R/B 3.4 22:50:24 18° SW 22:52:30 29° W 22:55:57 10° NW
Cosmos 1331 Rocket 4.2 22:49:45 10° NW 22:54:47 50° WSW 22:59:06 13° S
Cosmos 2322 Rocket 4.2 22:55:38 10° WNW 22:57:53 12° W 23:00:07 10° WSW
Cosmos 1302 Rocket 4.0 22:53:23 10° NNW 22:58:38 88° WSW 23:03:52 10° SSE
Aureole 3 Rocket 3.9 22:54:38 10° N 22:59:36 51° ENE 23:03:17 10° SSE
Cosmos 921 Rocket 4.3 22:57:50 10° SSE 23:01:24 30° ESE 23:05:05 10° NE
Cosmos 1933 Rocket 4.0 22:57:54 10° NNW 23:02:11 47° W 23:05:27 16° SSW
IRIDIUM 106 4.5 22:59:11 16° SSW 23:03:21 66° W 23:08:35 10° N
COSMOS 2428 3.1 22:59:14 10° NW 23:04:39 45° WSW 23:09:57 10° S
Cosmos 44 Rocket 3.6 23:00:25 10° NW 23:04:58 44° SW 23:09:35 10° SSE
NOSS 3-2 (C) 4.1 23:00:32 10° NW 23:07:32 61° SW 23:15:57 10° SSE
SL-16 R/B 4.1 23:03:22 10° ESE 23:08:55 37° NE 23:14:31 10° N
Cosmos 2292 Rocket 4.1 23:06:33 11° S 23:11:52 68° E 23:16:12 10° NNE
Cosmos 1980 3.7 23:07:18 10° NW 23:12:59 74° WSW 23:18:39 10° SSE
Cosmos 2227 Rocket 4.0 23:10:07 10° SSE 23:14:23 23° ESE 23:18:39 10° NE
Cosmos 1869 Rocket 3.9 23:10:24 10° NNW 23:14:44 52° W 23:18:29 13° S
IDEFIX/ARIANE 42P 2.8 23:09:31 10° NNE 23:14:46 69° ESE 23:19:43 11° S
USA 238 DEB 4.0 23:08:56 10° NW 23:16:08 89° SW 23:24:02 10° SE
USA 238 4.0 23:09:03 10° NW 23:16:14 90° WSW 23:24:09 10° SE
Cosmos 2360 Rocket 4.3 23:16:50 10° W 23:17:18 10° W 23:17:45 10° W
Cosmos 1515 Rocket 4.3 23:14:53 14° SW 23:18:17 42° WNW 23:22:28 10° N
NOSS 0 Rocket 4.2 23:13:47 10° NW 23:19:46 49° WSW 23:25:43 10° S
Resurs 1-4 Rocket 3.2 23:15:30 10° NNE 23:20:28 40° E 23:25:23 10° SSE
CENTAUR R/B 4.4 23:19:14 10° WNW 23:25:19 22° WSW 23:31:24 11° SSW
CZ-2C R/B 3.7 23:22:01 10° N 23:27:40 56° WNW 23:32:58 12° SW
Okean 2 3.5 23:24:22 11° S 23:28:05 70° E 23:32:02 10° NNE
ATLAS 3B R/B 3.8 23:21:24 10° W 23:28:56 54° NNW 23:36:41 10° ENE
USA 229 DEB 4.3 23:22:55 10° WSW 23:29:12 57° NNW 23:36:19 10° NE
USA 229 4.3 23:23:01 10° WSW 23:29:17 57° NNW 23:36:23 10° NE
H-2A R/B 2.1 23:25:10 10° NNE 23:29:20 71° ESE 23:33:14 11° S
Meteor 1-21 4.3 23:24:56 13° SSW 23:30:02 75° WNW 23:35:43 10° NNE
NOSS 2-2 (E) 3.8 23:30:13 10° WNW 23:33:52 46° SW 23:38:45 10° SSE
NPP 3.7 23:31:51 10° NNE 23:37:17 85° ESE 23:42:42 10° SSW
Cosmos 1733 Rocket 3.1 23:33:34 10° NNW 23:38:00 73° W 23:42:24 10° S
Cosmos 614 Rocket 4.2 23:34:34 11° SSW 23:39:36 68° ESE 23:44:48 10° NNE
Cosmos 1992 Rocket 4.0 23:34:29 10° NNW 23:39:43 77° WSW 23:44:54 10° SSE
SAR-Lupe-3 4.0 23:38:04 10° S 23:41:00 70° WSW 23:43:58 10° NNW
COSMOS 2455 2.9 23:35:50 10° NW 23:41:54 87° SW 23:47:57 10° SE
ADEOS II 3.1 23:40:33 10° NNE 23:45:33 43° E 23:50:31 10° S
Lacrosse 4 Rocket 3.2 23:41:46 10° NNW 23:45:36 36° NE 23:49:28 10° ESE
GENESIS II 3.5 23:42:50 10° NW 23:45:46 54° SW 23:48:41 10° SSE
Cosmos 1862 Rocket 3.8 23:41:42 10° S 23:46:07 71° E 23:50:34 10° NNE
Cosmos 2228 Rocket 3.4 23:43:04 10° S 23:47:36 71° E 23:52:09 10° NNE
Cosmos 1703 3.2 23:44:51 10° S 23:48:17 70° E 23:51:46 10° NNE
ARIANE 6 FM1 Upper Stage 3.6 23:44:15 10° NW 23:48:17 53° NNE 23:52:23 10° ESE
ALOS 3.3 23:45:37 10° NNE 23:49:57 41° E 23:54:16 10° SSE
Cosmos 2237 Rocket 2.5 23:44:34 10° NW 23:49:57 47° WSW 23:55:20 10° S
USA 281 3.6 23:46:16 10° NNE 23:52:48 60° ESE 23:59:16 10° SSW
CZ-2D R/B 2.6 23:48:14 10° NNE 23:53:42 65° ESE 23:59:07 10° S
